Flag for Poland Weather past 2 weeks in Olsztyn, Poland

Now
69 °F

Partly sunny.


Feels Like: 69 °F
Forecast: 49 / 69 °F
Wind: 3 mph from East

Location: Ketrzyn


UV Index: 0 (Low)

Visibility: 16 mi


Pressure: 29.95 "Hg

Humidity: 39%

Dew point: 43 °F

Location of OlsztynLocation

Historic Weather in Olsztyn

°F

Olsztyn temperature yesterday

Maximum temperature yesterday: 72 °F (at 4:00 PM)
Minimum temperature yesterday: 47 °F (at 4:00 AM)
Average temperature yesterday: 61 °F

Past Weeks' High & Low Weather Summary

 TemperatureHumidityPressure
High72 °F (Apr 19, 4:00 PM)100% (Apr 7, 6:00 PM)30.40 "Hg (Apr 7, 6:00 PM)
Low29 °F (Apr 17, 5:00 AM)26% (Apr 17, 3:00 PM)29.57 "Hg (Apr 14, 4:00 PM)
Average48 °F75%29.99 "Hg
* Reported Apr 5 5:00 PM — Apr 20 5:00 PM, Olsztyn, Weather by CustomWeather, © 2014

Note: Actual official high and low records may vary slightly from our data, if they occured in-between our weather recording intervals... More about our weather records

Advertising

Historic Weather Conditions — Data for Previous 24 hours

 ConditionsComfort  
Time TempWeatherWind HumidityBarometerVisibility
5:00 PM
Apr 20
69 °FPartly sunny.3 mph38%29.96 "Hg18 mi
4:00 PM70 °FPartly sunny.5 mph40%29.98 "Hg17 mi
3:00 PM70 °FPartly sunny.5 mph41%29.99 "Hg12 mi
2:00 PM70 °FPartly sunny.5 mph41%30.01 "Hg13 mi
1:00 PM69 °FPartly sunny.1 mph52%30.03 "Hg12 mi
12:00 PM63 °FOvercast.1 mph61%30.06 "Hg14 mi
11:00 AM62 °FOvercast.2 mph62%30.06 "Hg16 mi
10:00 AM59 °FOvercast.2 mph63%30.07 "Hg17 mi
9:00 AM56 °FOvercast.2 mph69%30.07 "Hg17 mi
8:00 AM54 °FPartly sunny.1 mph73%30.08 "Hg17 mi
7:00 AM45 °FOvercast.1 mph93%30.08 "Hg9 mi
6:00 AM49 °FScattered clouds.1 mph81%30.07 "Hg9 mi
5:00 AM48 °FPassing clouds.1 mph81%30.08 "Hg12 mi
4:00 AM53 °FPassing clouds.2 mph71%30.08 "Hg19 mi
3:00 AM53 °FClear.3 mph73%30.08 "Hg18 mi
2:00 AM53 °FClear.3 mph72%30.09 "Hg16 mi
1:00 AM56 °FClear.3 mph67%30.09 "Hg12 mi
12:00 AM57 °FClear.5 mph65%30.10 "Hg16 mi
11:00 PM
Apr 19
59 °FClear.5 mph65%30.10 "Hg11 mi
10:00 PM61 °FClear.5 mph62%30.10 "Hg11 mi
9:00 PM62 °FClear.3 mph61%30.11 "Hg11 mi
8:00 PM64 °FClear.5 mph53%30.10 "Hg12 mi
7:00 PM67 °FPassing clouds.5 mph50%30.09 "Hg12 mi
6:00 PM69 °FPassing clouds.5 mph43%30.08 "Hg12 mi
Weather by CustomWeather, © 2014

See weather overview